Theta_e
311 311 311 310 310 310 311 312 311 312 312 313 314 314 314 315 311 312 320 319 316 321 328 333 338 340 339 339 337 337 338 338 338 338 338 337 335 335 335 335 336 337 338 338 338 338 339 339 339 339 339 338 338 337 337 337 337 337 335 334 334 333 332 332 331 330 330 330 330 329 328 329 328 327 326 325 325 324 324 324 324 325 325 324 323 322 320
313 312 311 310 311 311 311 312 311 312 312 313 314 315 316 317 315 317 320 318 319 328 331 333 336 335 334 335 334 334 336 336 336 337 338 337 336 335 335 335 335 336 337 338 338 338 340 340 339 339 338 337 337 337 337 337 337 336 335 334 333 332 332 332 331 330 330 329 329 328 328 327 327 325 325 325 324 324 323 323 323 323 324 323 322 321 319
314 315 312 311 311 312 312 312 312 312 313 313 314 315 316 316 316 318 318 316 321 329 330 332 335 334 334 336 335 335 335 335 335 337 338 337 335 335 335 335 335 336 337 338 338 338 339 339 339 339 338 337 337 337 337 337 337 336 334 334 333 333 332 331 330 329 329 329 329 328 327 326 325 325 325 325 324 323 323 322 322 322 322 322 321 320 318
315 316 313 311 312 313 313 313 313 313 313 313 314 315 318 319 318 318 316 314 321 328 329 332 335 335 336 337 336 336 336 335 335 336 336 336 335 335 336 336 335 336 337 338 338 339 339 340 339 338 338 337 337 337 336 337 337 335 334 333 333 332 332 331 330 329 329 329 328 328 327 326 325 324 324 324 323 322 322 321 321 321 321 320 319 318 317
316 315 313 313 313 313 315 317 319 320 316 314 316 320 324 325 322 319 317 318 324 328 330 335 338 337 337 337 336 336 336 336 336 335 335 335 335 335 336 336 335 337 337 338 339 339 340 339 339 339 337 337 337 336 336 336 336 335 333 333 333 332 332 331 330 330 329 329 328 327 326 325 324 323 323 322 322 322 322 321 321 320 320 319 318 317 316
316 315 313 314 314 315 320 322 323 324 322 318 320 324 326 325 324 323 324 325 328 330 332 336 338 337 336 335 334 334 335 336 337 336 336 335 335 335 336 336 336 337 337 338 339 340 339 339 339 339 338 337 336 336 336 336 335 335 334 333 332 332 331 331 330 329 329 328 327 326 324 323 323 322 322 321 321 321 321 321 320 319 318 317 317 316 316
316 315 314 315 317 321 324 324 322 323 323 322 324 325 326 325 325 326 328 328 329 330 331 333 334 334 333 332 332 332 333 334 336 337 336 335 336 336 336 337 337 337 338 339 340 340 339 339 339 339 338 337 337 336 336 336 335 334 333 333 331 331 330 330 329 329 328 328 326 324 323 322 322 321 321 321 321 320 321 321 320 318 317 316 316 315 315
315 314 313 317 321 324 324 323 322 322 323 323 323 325 326 327 326 327 328 328 329 330 331 332 332 332 332 333 333 331 331 333 335 336 336 336 336 336 337 337 337 337 338 339 340 340 339 339 338 338 337 337 336 336 335 335 334 334 334 332 331 330 330 329 329 328 328 327 325 323 322 321 321 320 320 320 320 320 321 320 318 317 316 315 315 315 315
315 315 318 322 324 325 324 324 323 322 323 324 323 324 327 327 326 326 327 328 329 330 332 332 331 331 335 337 335 332 330 331 332 334 335 335 335 336 336 337 337 337 337 338 339 339 339 339 338 338 337 336 336 336 335 334 334 334 333 332 330 330 330 329 328 328 327 326 324 323 321 321 320 320 320 319 319 320 320 319 317 316 315 315 315 315 315
317 319 322 323 324 324 324 324 323 321 322 322 323 326 327 326 325 325 325 327 327 329 332 333 332 334 337 339 337 333 330 329 330 333 333 332 334 335 336 337 337 337 336 337 337 337 338 338 338 338 337 336 335 335 335 334 333 333 332 332 331 330 329 328 328 328 327 325 323 322 322 321 320 320 319 318 318 320 319 317 316 315 315 315 315 315 315
317 319 321 322 323 323 323 323 322 320 320 320 323 327 328 326 324 323 324 325 325 326 330 332 333 335 336 338 336 331 328 327 327 330 331 330 331 332 334 335 336 336 336 336 336 336 337 337 337 336 336 335 335 335 334 334 333 332 331 330 330 330 329 328 327 327 325 323 323 322 321 321 320 319 319 318 318 319 318 316 315 315 314 314 314 314 313
318 319 320 321 322 322 321 322 321 319 319 320 324 326 327 325 323 322 323 325 325 325 326 329 332 333 333 335 332 327 326 326 325 325 327 327 327 329 330 332 333 334 335 335 336 336 336 336 336 335 335 335 334 334 333 333 332 332 331 329 328 328 327 326 326 325 323 322 322 322 321 320 320 319 318 317 317 318 317 316 315 315 314 314 313 312 310
319 320 320 321 321 321 320 321 320 318 317 319 322 325 325 323 322 322 323 324 324 324 325 327 329 329 328 329 327 325 325 326 324 324 325 325 325 327 328 328 330 332 333 333 334 335 335 336 335 334 335 335 334 333 333 332 331 331 331 329 328 327 326 325 324 323 322 322 322 320 320 319 318 318 318 317 316 318 317 316 315 314 314 313 311 310 308
317 319 321 322 321 319 318 320 319 319 320 322 324 323 322 321 321 322 323 324 325 325 325 325 326 326 325 325 325 324 324 325 324 324 325 325 326 326 327 327 328 329 329 329 330 331 333 335 335 334 334 333 332 332 332 332 331 331 330 329 328 327 327 325 323 322 322 322 321 320 319 319 318 317 316 316 316 317 317 314 314 313 312 311 309 309 308
317 318 320 322 322 319 318 320 322 323 324 324 322 322 322 321 321 322 323 323 324 325 325 325 325 325 325 325 324 324 324 324 324 324 324 324 325 326 326 326 327 328 328 327 326 327 329 331 332 333 333 333 332 332 332 332 331 330 329 328 327 326 325 324 322 321 320 319 319 318 318 318 317 316 315 315 315 316 315 313 312 311 310 309 309 308 307
319 322 323 323 322 319 318 321 323 322 321 320 320 322 323 322 320 322 323 322 322 324 325 325 325 325 325 325 325 324 324 324 323 323 323 324 325 325 325 325 326 327 327 326 326 325 326 327 329 330 331 332 332 331 329 328 329 328 327 326 324 323 323 322 320 319 318 317 317 317 317 317 316 314 314 314 314 314 313 312 311 310 309 309 308 307 306
321 323 322 321 320 319 319 321 321 320 318 318 320 321 322 321 320 320 321 321 321 322 324 325 325 325 325 325 324 324 324 324 323 323 323 323 324 325 325 324 325 326 326 326 326 326 325 326 326 327 328 328 327 325 323 324 326 325 324 323 321 320 319 319 317 316 316 317 317 316 315 315 314 313 312 312 312 312 312 312 311 310 309 309 308 307 307
320 320 317 317 318 319 318 319 319 319 318 318 318 319 320 320 320 319 320 320 320 321 323 324 324 324 325 324 324 323 323 322 322 322 322 323 323 324 324 325 325 326 326 325 325 324 324 324 324 324 325 325 323 321 321 322 323 322 321 321 319 318 317 316 316 315 315 315 315 314 314 313 313 312 312 311 311 311 311 310 310 309 308 308 308 308 307
321 319 316 315 317 318 317 317 317 317 317 316 316 317 317 318 318 319 318 319 320 321 322 323 324 324 324 324 324 324 323 322 322 322 322 322 323 324 325 325 325 326 326 325 323 322 321 321 321 321 322 322 321 320 320 321 321 321 320 319 318 317 317 315 314 314 314 314 313 312 312 311 311 311 311 310 310 310 310 309 308 308 307 308 308 308 307
320 318 316 315 316 316 316 316 316 315 316 316 315 315 316 316 317 318 317 317 318 320 320 321 323 323 323 324 324 324 324 323 322 322 322 322 323 323 324 325 325 325 326 324 323 321 320 320 320 320 320 319 319 319 319 320 320 319 319 318 317 317 316 314 313 313 313 312 311 310 310 309 309 309 310 309 309 309 309 309 309 308 308 308 308 308 307
319 317 316 316 317 317 316 316 315 315 315 315 314 314 315 315 315 316 317 317 317 318 319 320 322 322 322 323 323 323 323 323 323 322 323 323 323 323 323 324 324 324 324 323 322 321 320 320 320 320 320 319 318 318 319 319 318 318 317 316 316 315 314 313 312 311 311 311 310 309 308 307 307 307 307 308 308 308 308 308 309 309 309 310 309 308 307
320 320 319 318 319 318 317 315 314 314 314 314 314 313 313 313 313 315 316 316 316 317 318 319 320 322 322 322 322 322 322 322 322 322 323 323 323 323 323 323 323 323 323 322 321 320 319 319 319 319 319 319 318 318 318 318 318 317 315 315 314 313 313 312 310 310 310 309 308 308 307 306 305 305 306 307 307 308 308 308 308 309 310 310 310 309 308
320 320 319 318 318 317 315 314 314 313 313 313 313 312 312 313 312 313 314 315 315 316 317 318 319 320 321 321 321 321 321 322 322 322 323 323 322 322 322 322 323 322 321 320 319 318 318 318 318 318 318 318 317 317 317 317 317 315 314 314 313 312 311 310 309 309 308 307 307 306 304 304 303 303 304 305 306 307 307 308 308 309 309 310 310 309 308
319 318 317 317 316 315 314 313 313 312 312 313 313 312 311 311 311 312 312 313 314 315 315 317 318 318 319 321 321 320 321 322 322 321 321 321 321 321 321 322 322 321 320 319 318 317 317 317 317 317 316 316 316 316 316 315 315 314 314 313 312 311 310 308 308 307 307 306 305 304 303 302 303 303 302 302 303 304 305 306 307 307 308 308 308 308 307
317 315 314 314 313 313 313 312 311 311 311 311 312 311 310 310 310 311 312 312 313 314 314 314 316 317 319 321 321 320 321 321 321 320 320 320 319 320 320 320 320 320 318 318 318 317 317 316 316 315 315 315 315 315 315 314 314 314 313 312 311 310 308 307 306 306 306 306 306 306 304 303 303 303 302 301 300 300 301 303 304 305 305 306 306 306 306
315 313 312 312 312 312 312 312 311 310 310 311 311 310 310 311 310 311 312 312 313 314 313 313 315 317 319 321 321 320 321 320 319 319 320 320 319 319 319 319 318 318 317 317 317 317 317 316 315 315 315 315 314 314 314 314 313 313 312 311 310 309 307 306 306 306 306 306 305 305 305 304 304 304 303 303 302 301 300 300 301 302 303 304 304 304 304
313 312 312 313 312 312 311 311 310 310 310 310 310 309 311 312 311 311 312 313 314 315 314 314 315 318 319 319 319 320 320 319 319 319 320 320 319 318 317 317 317 317 317 316 316 315 315 316 315 315 314 314 314 314 314 313 313 312 312 311 309 308 307 306 306 305 305 304 304 304 304 304 304 303 303 304 304 302 301 300 300 300 300 300 301 302 303
312 311 312 313 312 311 310 310 310 309 309 310 309 310 310 311 311 311 311 312 313 315 314 313 315 317 317 318 319 320 320 320 320 320 320 319 318 316 315 316 316 316 315 315 314 314 315 316 316 315 314 313 313 313 313 313 312 312 311 309 308 307 306 306 306 305 304 304 304 304 304 305 304 304 303 303 303 302 302 302 302 301 300 298 298 300 301
311 311 311 311 310 310 310 310 309 309 308 309 309 309 309 310 310 310 311 312 312 313 312 312 313 315 316 317 319 320 320 320 320 320 319 318 317 316 315 315 315 314 315 315 315 315 315 315 315 315 314 313 312 312 312 312 311 310 309 309 308 307 306 306 306 305 305 304 304 304 304 304 304 303 302 302 302 303 303 303 301 301 300 298 298 298 299
311 310 310 310 309 309 309 309 309 308 307 307 308 308 308 309 309 310 310 311 311 311 311 312 313 314 315 316 317 318 319 320 319 319 318 317 316 315 315 315 314 314 315 315 315 314 314 314 314 314 313 312 311 311 311 311 310 309 308 308 307 307 307 307 306 305 305 304 304 304 304 303 303 302 302 302 302 303 302 301 300 301 301 300 300 300 299
310 310 310 310 309 309 308 308 308 307 307 307 307 308 308 309 310 310 310 310 310 310 311 312 312 312 313 314 316 317 318 318 317 316 316 316 316 315 315 315 315 314 314 314 313 313 313 313 313 312 311 310 310 310 310 310 309 308 307 307 307 307 307 307 306 306 305 305 304 304 303 303 302 301 301 301 301 301 301 300 301 302 302 301 301 301 300
310 310 310 309 309 308 308 307 307 307 307 307 307 308 308 308 309 309 309 309 309 310 310 310 311 310 311 313 315 316 317 317 315 314 313 314 315 315 314 314 314 314 313 312 312 312 313 312 312 311 310 309 310 310 310 309 308 307 306 306 306 305 306 306 306 306 306 305 305 304 303 302 301 301 300 300 301 301 300 300 301 301 301 301 301 301 300
310 310 310 309 308 308 307 307 307 307 306 307 307 307 307 308 308 308 309 309 310 310 310 310 310 311 311 313 314 315 316 316 315 313 312 312 313 313 313 314 314 314 313 312 311 312 312 312 311 310 309 309 309 309 309 309 308 307 306 305 305 305 304 305 305 305 305 304 305 304 303 301 300 300 300 300 300 300 300 300 301 302 302 302 303 302 301
309 309 308 308 307 307 306 306 306 306 307 307 307 307 307 308 309 309 309 309 309 309 310 310 310 310 312 312 312 313 315 316 315 314 313 312 312 312 312 313 314 314 313 311 311 311 312 311 311 310 309 309 309 309 309 309 309 308 307 306 305 304 304 304 304 304 303 303 304 304 302 301 301 300 300 301 301 301 301 302 302 302 303 303 302 301 300
308 307 306 307 306 306 306 306 306 307 307 307 307 307 307 308 309 308 308 308 308 309 309 309 309 310 312 312 311 312 313 315 315 314 313 312 311 311 312 313 313 313 312 311 311 311 311 311 311 311 310 309 309 308 308 308 308 307 307 306 305 304 304 303 303 302 302 302 303 302 301 301 301 300 299 299 300 300 300 300 301 301 302 301 300 299 299
306 305 305 306 306 307 307 307 307 307 307 306 307 307 308 308 308 308 308 308 308 308 309 309 310 310 311 311 311 310 310 312 313 314 313 313 312 311 311 312 313 313 312 312 311 310 310 310 311 311 310 308 308 308 308 308 307 307 306 305 303 303 302 302 301 301 301 302 302 301 300 300 300 298 298 298 298 298 298 298 299 300 301 300 298 297 298
305 305 305 306 307 307 308 307 308 308 307 307 308 308 308 308 307 307 308 308 308 308 309 309 309 310 310 310 310 309 309 310 311 312 312 312 312 312 312 312 313 313 313 312 311 310 310 310 310 310 310 309 308 308 309 309 308 307 306 305 303 301 301 301 300 300 300 301 301 301 300 300 299 298 298 298 299 298 298 298 298 299 299 298 297 298 298
304 305 305 306 307 308 308 307 308 308 307 308 308 308 308 307 307 307 307 307 307 308 308 309 309 309 309 309 310 310 309 309 310 310 310 311 311 312 312 311 312 312 313 312 310 309 310 310 310 310 309 309 309 309 309 308 308 307 306 306 304 303 302 301 300 300 300 300 300 299 299 299 299 298 298 298 298 298 297 297 297 297 297 296 297 298 296
304 305 305 306 306 307 307 307 308 307 307 307 307 307 307 307 307 307 307 307 307 307 308 308 309 309 309 309 310 310 309 308 309 309 309 309 310 310 309 308 309 310 310 310 309 309 310 310 309 309 309 310 310 309 308 307 307 306 306 305 305 303 302 302 302 301 301 300 299 298 297 298 298 298 297 297 297 296 296 296 296 296 296 296 296 295 294
304 305 305 306 306 307 307 307 308 307 307 307 307 307 307 307 307 307 307 307 306 307 307 308 309 309 309 309 309 309 308 308 308 308 308 308 308 309 309 307 306 306 307 307 307 308 309 309 308 308 309 309 309 309 308 307 307 306 306 305 304 303 302 302 302 301 300 299 298 298 298 297 297 297 296 296 295 295 295 294 294 294 294 293 293 293 293
304 305 305 306 306 306 307 307 307 307 307 307 307 307 307 307 307 307 306 306 306 306 307 307 308 308 308 308 308 307 307 307 306 306 307 308 308 308 308 306 304 304 306 307 307 307 308 308 309 309 308 308 308 308 307 306 305 305 304 304 304 303 302 301 300 299 299 299 299 299 297 296 295 294 294 294 294 293 293 293 293 293 292 291 292 291 291
305 305 305 305 306 306 306 307 307 307 307 307 307 307 307 307 306 306 306 306 306 306 306 306 306 306 306 307 306 306 306 306 305 304 304 305 306 307 306 304 303 305 306 306 306 306 306 306 307 308 308 307 307 307 306 305 304 303 302 303 304 304 302 301 300 299 299 299 299 297 295 295 294 294 294 294 293 292 291 292 293 292 291 290 290 290 290
305 305 305 305 305 306 306 307 307 307 307 307 306 307 307 307 306 306 306 306 306 306 307 307 306 306 306 306 306 306 306 305 305 304 303 302 302 303 304 303 303 304 305 305 305 305 305 305 305 306 307 306 306 305 304 303 303 303 303 304 304 303 302 301 300 299 298 297 296 295 294 295 295 294 294 294 293 292 291 291 291 291 290 290 290 290 291
305 305 305 305 305 306 306 307 307 307 307 307 306 307 307 307 306 306 306 306 306 306 306 306 306 305 305 305 305 305 305 304 305 305 305 304 302 301 302 302 302 303 305 305 304 304 304 305 305 305 305 304 304 304 303 302 303 303 303 302 301 300 299 298 297 296 296 295 295 295 295 295 295 293 292 292 291 291 291 291 291 291 291 291 292 292 293
305 305 305 306 306 305 306 307 307 308 307 307 306 307 306 306 306 306 306 306 306 306 306 306 305 304 304 303 303 303 302 303 303 304 305 305 303 301 301 302 303 304 305 305 305 304 304 305 305 304 303 303 303 303 302 302 302 301 300 298 297 297 296 296 295 295 295 296 296 296 296 296 296 295 294 293 293 292 292 293 293 293 294 294 294 294 294
305 305 305 306 306 306 307 307 307 307 307 306 307 307 306 306 305 305 305 306 306 306 305 305 304 304 303 303 302 301 301 301 301 301 303 304 303 301 301 302 303 303 303 304 304 304 303 303 303 303 302 302 302 302 302 301 301 300 299 298 297 297 296 296 295 296 296 296 297 297 297 297 297 297 296 296 295 295 294 294 295 295 295 296 296 295 295
305 304 305 305 306 307 307 307 307 307 307 306 306 307 306 305 305 305 305 305 305 305 305 305 304 303 303 302 302 302 301 301 300 300 300 301 302 301 301 302 303 303 303 303 302 302 302 302 301 301 301 302 302 302 302 301 300 300 299 298 298 297 297 297 297 297 298 298 298 298 298 298 297 297 297 296 296 296 295 295 295 295 295 295 295 294 294
305 305 305 306 306 307 307 307 307 307 306 306 306 306 305 305 305 305 305 305 305 305 304 304 304 303 303 303 302 302 302 301 301 300 300 300 301 301 301 301 302 302 302 302 301 301 301 301 301 301 301 302 302 302 301 300 299 299 298 298 298 298 298 298 298 298 298 298 298 298 298 297 297 296 296 296 296 295 295 295 295 294 294 293 293 293 292
305 305 306 306 306 306 307 306 306 306 306 306 306 306 305 304 304 305 305 305 305 305 305 305 304 304 303 303 303 302 302 302 301 300 300 300 300 300 301 301 301 301 301 301 300 300 300 301 301 301 302 302 301 300 300 299 299 299 299 299 299 298 298 298 299 299 299 298 297 297 297 296 296 296 296 295 295 295 294 294 293 292 292 292 292 291 291
305 306 306 306 306 306 306 306 306 306 306 306 306 306 305 305 305 305 305 305 304 305 305 304 304 304 304 303 302 302 301 301 300 300 299 299 299 300 300 300 301 301 301 301 300 300 300 300 300 300 300 300 299 299 299 299 299 299 299 299 299 299 299 298 298 298 298 297 297 297 297 296 296 296 295 295 294 293 293 292 292 291 291 290 290 289 289
305 305 305 305 305 306 306 306 306 306 306 306 306 306 305 305 305 305 304 304 304 305 304 304 303 303 303 303 302 301 300 300 299 299 299 299 299 299 299 299 300 300 300 300 299 299 299 299 299 299 299 299 299 299 299 299 299 299 299 298 298 298 298 297 297 297 297 297 297 297 296 296 295 294 294 293 292 291 291 290 290 290 290 290 289 289 289
305 305 305 305 305 306 306 306 306 306 306 306 306 306 306 305 305 305 304 304 304 304 304 304 303 303 302 301 301 300 299 299 299 299 299 299 299 299 299 299 299 299 299 299 299 299 299 299 299 299 299 299 299 299 299 298 299 298 298 298 298 297 297 297 297 297 296 296 296 296 295 294 293 293 292 292 291 290 290 290 289 289 289 290 289 289 288
Wind_Speed
8 9 12 15 16 15 14 15 15 16 17 17 14 9 6 7 5 4 6 3 4 9 8 6 6 6 5 5 4 3 3 5 5 6 9 10 10 11 11 11 12 13 13 14 14 14 17 19 20 19 19 20 20 21 20 20 21 22 22 22 22 22 23 21 20 19 18 17 17 18 20 22 25 29 31 31 31 30 27 22 18 16 15 14 13 13 12
7 8 12 17 17 15 15 15 15 15 14 14 14 11 7 6 6 4 7 5 2 7 6 5 5 5 3 3 3 2 3 4 5 6 7 8 9 10 11 11 11 12 13 14 14 15 17 19 19 19 19 21 22 21 21 21 21 22 22 22 21 21 21 20 19 18 17 17 19 21 22 22 23 27 30 32 31 29 25 20 17 16 14 14 13 13 13
8 8 12 16 16 15 15 15 16 15 14 13 14 13 9 8 8 6 7 7 1 6 5 3 3 4 2 3 4 4 4 4 5 5 6 7 8 10 10 10 11 12 13 14 14 15 17 19 20 19 19 21 23 23 23 22 22 22 22 21 21 21 21 20 19 19 19 19 21 22 22 23 24 26 30 32 29 25 21 18 17 16 14 14 13 13 14
7 9 14 17 17 15 13 13 14 14 14 14 12 8 5 5 7 6 5 4 2 5 4 2 2 2 2 4 5 4 4 4 5 5 5 6 7 9 10 11 12 14 14 15 15 16 17 19 20 20 20 21 21 23 24 23 21 21 21 20 20 21 21 21 21 20 20 20 21 22 21 22 24 27 30 30 26 22 20 19 18 16 14 15 15 15 15
7 11 15 17 15 13 10 7 5 6 9 11 9 4 5 4 4 4 2 1 4 6 6 3 4 5 4 4 4 3 3 4 4 4 5 6 7 8 9 11 13 14 14 15 16 17 18 19 19 21 22 21 21 23 23 21 20 20 20 20 21 21 22 22 22 22 22 22 22 23 23 23 26 29 31 29 24 22 20 18 17 16 15 16 16 16 16
7 13 15 15 12 9 6 3 2 2 5 7 5 5 7 5 4 4 4 5 7 8 6 5 4 4 5 4 4 4 3 2 3 4 4 6 7 8 8 10 11 12 11 12 15 18 19 20 19 20 22 22 21 22 21 19 19 20 20 20 21 21 22 23 23 23 23 24 24 24 25 27 30 31 29 27 24 22 20 17 16 16 16 18 18 16 17
8 12 13 13 10 6 5 4 2 1 1 1 6 11 10 6 4 5 6 6 7 7 5 5 4 3 4 3 4 5 4 3 2 4 5 5 6 7 8 9 10 10 10 11 14 17 17 17 18 19 20 21 21 21 20 19 19 19 20 20 20 21 22 23 24 24 25 25 25 25 27 31 33 30 28 27 24 21 20 17 15 15 17 19 19 17 17
8 10 10 8 7 7 6 5 4 3 2 5 8 9 10 8 6 4 5 5 6 5 4 3 3 3 3 3 5 6 5 4 4 4 6 5 6 6 6 8 9 10 10 11 12 14 14 15 17 17 18 19 20 20 19 19 19 19 19 18 19 21 22 23 24 25 26 26 26 26 30 32 31 30 30 28 24 20 18 15 14 16 17 19 19 18 18
5 8 8 6 8 7 5 5 4 2 1 2 2 4 8 9 7 5 4 4 4 5 4 2 2 2 1 4 6 7 7 6 5 6 7 5 5 5 5 6 8 9 10 10 11 12 12 13 15 16 17 19 20 20 19 18 17 17 17 18 19 20 21 23 24 25 26 27 27 29 33 34 32 32 32 28 23 20 18 16 16 18 19 19 18 18 18
4 7 8 7 7 6 4 4 4 4 2 2 3 2 6 8 9 7 5 5 4 5 3 0 1 3 3 6 6 7 9 8 6 6 7 6 7 7 6 6 7 9 9 9 10 10 11 12 14 15 17 18 17 17 17 16 15 16 17 19 20 20 20 21 23 25 25 26 28 32 35 36 35 33 30 25 21 19 18 17 18 19 19 19 18 18 17
6 7 7 6 5 4 3 4 5 5 2 2 4 4 3 8 10 7 6 6 5 5 3 2 3 3 3 6 4 6 9 8 8 8 8 8 9 9 9 8 7 8 8 8 9 10 10 11 14 16 19 17 15 15 15 15 16 17 17 18 18 18 19 20 22 24 24 27 32 35 37 38 36 32 27 23 21 19 18 18 19 19 19 19 19 17 15
6 5 6 5 4 4 4 5 6 5 2 2 6 6 3 7 9 7 7 7 6 6 5 3 3 2 3 4 3 6 7 7 8 9 9 9 9 9 10 10 9 8 7 7 8 9 10 11 13 17 19 17 14 14 14 13 15 15 15 16 16 16 18 20 22 23 25 30 34 34 34 36 36 32 27 24 22 20 18 18 20 20 20 19 18 17 15
5 5 6 5 4 4 5 6 6 4 1 2 3 3 2 6 7 6 6 6 5 6 6 3 2 4 4 3 4 6 7 7 9 9 9 10 11 11 10 9 8 8 7 5 5 5 8 11 12 15 18 16 15 15 15 14 14 14 13 14 16 17 18 20 21 25 31 35 33 30 30 33 33 30 26 25 25 22 20 20 21 21 21 20 18 16 16
1 4 6 5 5 4 6 7 4 2 0 2 2 3 2 4 5 5 6 6 6 6 7 6 5 5 6 6 6 7 8 8 9 8 9 10 10 10 11 10 9 9 9 9 8 6 6 9 11 14 16 15 14 15 16 16 15 15 14 14 15 16 17 18 19 23 30 34 32 31 32 33 31 27 23 23 25 23 22 23 24 23 22 20 19 17 16
0 4 6 5 5 3 9 8 2 2 2 3 3 2 2 3 5 5 5 6 6 6 7 7 6 7 7 7 7 8 9 9 9 9 9 9 10 10 10 11 10 9 9 9 9 7 5 6 8 11 14 14 14 14 14 13 14 15 15 15 16 16 16 16 16 17 20 23 25 28 32 33 31 27 22 20 22 23 24 25 25 23 21 19 19 19 17
1 4 5 3 2 4 7 5 4 5 5 4 2 2 4 5 5 5 5 6 6 6 7 7 7 8 8 7 7 7 7 7 7 8 8 8 9 10 10 9 9 9 9 9 8 7 5 3 3 5 8 11 12 12 10 11 14 15 16 17 19 19 20 19 18 19 22 24 24 25 28 31 30 26 22 21 22 25 27 26 24 22 19 19 19 19 18
4 5 5 4 4 5 7 8 9 8 7 6 5 6 6 5 6 5 5 6 6 6 6 7 7 7 7 7 6 6 5 5 5 6 6 6 7 8 8 8 7 8 9 8 7 7 6 4 3 2 3 5 7 7 8 10 14 16 18 20 20 20 21 22 21 23 27 30 29 28 27 29 29 28 26 24 23 26 28 27 24 20 18 18 19 18 18
7 8 8 6 7 8 9 10 10 9 9 8 7 7 7 6 6 6 6 6 7 6 6 7 7 7 7 7 6 6 5 5 5 6 6 6 7 8 8 8 8 8 9 9 8 7 6 5 5 4 3 5 8 8 9 11 14 15 16 17 17 17 19 21 21 24 29 31 29 28 27 27 27 28 28 25 22 24 26 26 24 21 18 17 17 16 16
3 4 5 5 6 8 10 10 10 10 9 8 7 7 7 6 7 7 7 7 7 7 7 7 6 7 7 7 7 6 6 6 5 5 6 6 7 7 8 7 8 8 9 9 8 8 6 5 5 5 5 5 8 10 11 13 14 14 15 17 17 17 18 19 19 21 26 28 27 27 28 28 27 27 28 26 23 20 20 22 23 22 19 17 16 16 16
4 6 3 1 5 8 9 9 8 8 8 8 8 7 6 6 6 7 7 7 6 6 7 6 5 6 6 6 6 6 6 6 6 5 6 6 6 7 7 7 6 8 9 9 9 8 7 6 5 5 5 6 8 10 13 14 13 13 16 19 19 17 17 17 18 20 24 26 26 26 26 26 26 26 27 28 25 19 16 17 19 19 19 18 17 17 17
7 7 5 4 5 8 9 9 8 7 7 7 7 7 7 7 7 7 8 7 7 6 6 5 5 6 6 5 5 5 5 6 6 5 6 7 7 7 7 7 7 8 9 9 9 9 8 7 6 6 6 7 8 9 12 14 13 14 18 20 19 17 16 16 18 22 24 23 22 25 25 25 25 23 23 25 25 21 16 15 16 17 16 15 16 17 16
5 5 5 5 4 5 7 8 8 7 7 7 6 7 7 8 8 8 8 8 7 7 7 7 5 5 5 5 5 5 5 5 6 6 6 6 6 6 7 7 8 8 8 8 9 8 7 6 6 7 7 8 8 8 10 12 13 16 20 20 18 17 17 17 19 22 23 20 19 23 26 26 25 23 22 22 24 23 21 19 18 17 15 14 15 16 15
5 6 5 3 4 6 6 7 8 7 6 6 7 7 7 8 8 8 8 8 7 7 7 8 7 6 5 4 5 5 5 6 6 6 5 5 6 6 6 6 7 7 8 8 8 8 7 7 6 7 7 8 8 8 9 11 12 15 19 19 17 17 17 19 22 23 22 20 19 21 23 24 25 25 23 21 20 22 24 22 20 19 16 15 16 16 15
6 7 6 6 7 7 7 7 8 7 6 7 7 7 7 7 6 7 7 6 7 7 6 7 8 7 6 4 5 5 5 5 5 5 6 6 5 5 5 5 6 7 7 7 8 8 7 7 7 7 8 8 8 8 9 10 11 14 16 16 15 15 18 22 24 25 24 24 22 21 21 22 23 24 24 22 19 18 19 19 18 18 16 16 17 17 16
6 7 8 8 8 7 6 6 8 8 7 7 7 7 7 7 6 6 6 5 6 6 6 6 7 7 6 4 4 3 3 4 5 5 6 5 5 5 5 5 6 6 6 6 7 8 8 8 8 8 8 8 8 8 9 10 11 13 14 14 16 18 22 25 26 27 28 28 27 26 25 24 23 22 22 21 20 18 15 13 13 13 12 13 16 17 17
6 6 6 7 7 5 4 4 7 9 8 7 7 7 8 5 3 4 5 5 5 6 6 5 6 6 5 4 3 3 3 3 3 3 4 5 5 5 5 5 5 5 6 6 7 8 8 9 8 8 8 8 7 8 10 10 11 13 13 16 20 23 25 27 26 26 25 25 25 28 29 27 26 24 22 21 20 19 17 14 12 11 10 10 13 15 16
5 3 2 4 6 7 6 6 7 7 8 8 7 7 7 5 3 3 5 5 4 5 6 6 5 4 4 5 3 3 4 3 3 2 3 5 5 5 5 5 5 6 6 7 8 9 9 8 9 9 9 7 7 8 10 11 12 13 14 17 22 24 24 25 24 22 21 21 22 26 28 27 25 25 24 23 21 19 18 16 14 14 13 12 12 14 15
3 1 2 3 5 7 7 6 6 6 7 7 7 7 7 6 5 6 6 6 5 6 6 7 6 5 4 4 3 2 3 3 4 4 5 5 5 5 6 6 6 6 7 8 8 8 8 7 8 9 9 8 7 8 11 12 12 13 15 18 20 20 20 21 22 22 22 23 25 27 29 28 25 23 23 23 21 18 15 14 14 14 14 15 15 15 15
4 4 5 7 8 6 5 5 6 6 7 7 7 7 6 6 6 6 6 6 7 6 7 8 7 5 4 4 4 3 3 3 4 6 7 6 6 6 6 7 7 7 7 8 8 7 6 7 7 8 8 8 7 8 12 14 12 13 17 19 20 20 19 19 21 23 24 24 26 27 27 26 24 23 22 21 19 17 15 16 16 15 14 15 16 16 15
5 6 6 7 6 5 4 5 6 7 7 7 6 6 6 6 5 5 6 7 7 7 7 8 7 6 5 5 5 4 4 4 5 6 7 7 6 6 6 7 7 7 7 7 7 7 6 6 7 8 8 8 7 8 12 13 11 12 16 18 20 22 23 23 24 24 23 23 25 25 24 23 22 21 19 17 15 15 17 19 19 17 15 15 15 14 15
6 6 6 5 4 4 4 5 5 6 7 6 6 6 6 7 6 6 6 7 7 7 8 8 8 8 8 6 6 5 5 5 6 6 6 6 5 5 5 5 5 5 6 6 6 6 7 7 7 7 8 8 9 10 13 13 10 10 13 16 17 19 22 25 26 25 24 24 25 23 22 21 20 18 17 16 15 16 18 19 18 16 16 16 14 14 15
5 4 4 3 2 2 3 4 5 5 5 5 5 5 6 6 6 6 6 6 7 8 8 8 8 9 8 7 6 5 5 6 6 6 6 5 4 4 4 3 3 5 5 6 5 5 7 8 8 7 7 9 10 12 14 14 12 11 13 16 17 18 21 23 24 24 24 25 25 23 21 20 19 17 17 17 16 16 18 18 16 16 17 16 14 14 16
2 2 2 1 1 2 3 4 4 4 4 5 5 4 4 5 5 6 6 6 7 7 7 8 8 9 8 7 6 5 5 6 6 5 5 5 4 4 3 2 3 5 5 5 5 4 5 6 8 8 9 10 11 12 14 14 14 14 14 16 18 19 20 21 22 23 23 23 23 22 22 20 18 16 15 16 15 16 17 16 15 15 15 14 12 13 15
2 3 4 4 3 3 3 3 3 3 3 3 3 3 4 4 5 6 6 7 7 6 7 8 9 8 7 7 6 5 4 4 4 4 4 4 4 4 4 3 4 5 6 6 5 4 3 5 7 8 9 9 9 11 12 12 12 14 15 17 19 20 20 21 21 22 21 21 21 21 19 16 14 12 12 12 13 13 13 14 13 13 13 12 11 12 15
3 4 4 3 3 3 2 3 3 3 3 3 3 3 3 4 5 6 6 6 6 6 7 8 8 8 7 6 6 6 5 4 4 4 5 5 4 4 5 5 5 6 7 7 6 5 4 5 7 9 9 9 8 9 10 10 11 14 17 20 21 21 22 22 21 19 19 20 21 19 15 12 12 13 14 13 12 11 12 12 11 11 11 10 10 12 14
3 3 3 3 4 4 3 3 3 3 3 3 3 3 3 4 5 6 6 6 6 5 6 6 6 6 6 6 6 7 6 5 5 5 5 5 5 5 5 5 6 7 7 6 6 6 6 7 9 10 10 9 8 7 8 9 11 15 18 20 21 21 21 20 19 18 18 19 20 18 15 14 15 16 16 15 14 13 13 12 11 10 9 10 11 13 15
4 4 4 4 4 4 5 4 5 5 4 3 3 3 3 4 5 6 6 6 5 5 5 5 5 5 6 6 6 6 6 5 5 5 5 5 5 5 5 4 5 6 6 6 6 6 7 9 10 10 10 10 9 7 7 8 11 15 18 19 20 19 19 17 17 16 16 16 17 17 16 15 15 15 14 13 13 12 11 11 11 10 10 11 13 15 18
5 5 5 5 5 5 5 5 4 5 5 4 4 3 3 3 4 5 6 6 6 5 4 4 4 4 5 5 5 5 6 6 5 5 5 4 3 5 5 5 4 3 4 6 7 7 9 11 10 9 9 10 9 8 7 8 12 16 18 19 19 19 18 18 18 17 15 15 16 15 15 14 14 13 11 11 11 11 10 11 12 12 13 15 17 18 20
5 5 4 4 4 4 5 4 4 5 5 4 4 3 2 2 3 4 5 5 5 5 4 3 3 3 4 4 4 5 6 6 5 4 5 4 4 5 6 5 4 3 3 6 7 9 12 13 10 8 9 10 9 9 9 10 12 17 18 18 18 19 19 19 19 18 17 17 17 16 15 14 13 11 11 12 13 13 12 13 14 15 15 16 17 18 18
3 4 3 3 3 4 4 4 4 4 4 4 5 4 2 2 3 4 4 4 4 4 3 2 2 2 3 4 4 5 5 5 5 5 5 4 3 4 5 5 5 4 4 6 8 11 15 14 11 11 11 11 10 11 11 11 13 16 17 18 19 20 20 20 21 20 19 19 18 17 17 17 15 14 14 14 13 13 12 12 12 13 14 15 15 15 16
3 3 3 3 3 4 4 4 4 4 5 5 5 4 2 1 2 4 4 4 3 3 3 3 2 3 3 4 4 4 5 6 6 5 5 4 3 3 3 3 4 4 5 7 10 13 14 13 12 12 12 12 12 13 13 13 14 16 17 19 21 21 21 21 21 21 21 21 20 19 18 18 17 16 15 13 13 13 14 13 11 12 13 14 15 16 17
4 3 3 3 4 3 3 3 3 5 6 5 4 3 3 2 1 3 3 3 3 2 3 4 5 4 4 3 4 4 5 5 6 6 6 5 4 3 2 2 3 5 6 8 10 11 11 9 10 11 13 13 14 13 13 15 16 17 18 20 21 21 21 22 21 20 20 20 20 20 20 20 19 18 15 13 13 14 15 14 12 12 13 15 16 16 17
4 3 3 4 4 3 2 3 4 4 4 4 3 2 4 3 1 2 2 2 2 2 3 4 4 4 3 3 3 4 4 4 4 5 6 6 5 4 3 4 5 7 8 8 8 8 7 8 10 11 13 14 14 14 14 16 17 18 18 20 21 21 21 21 21 20 19 18 18 20 21 20 20 19 17 15 15 16 16 15 15 14 14 15 15 14 14
5 3 4 4 3 2 2 3 3 3 3 3 3 2 3 3 2 2 2 3 3 4 4 4 4 4 4 4 4 3 3 3 3 3 4 5 6 6 5 7 8 9 10 9 7 7 8 10 11 11 13 14 15 15 17 19 20 20 21 22 22 22 22 23 23 23 22 20 19 19 20 20 20 20 20 19 18 18 17 16 16 15 14 13 12 11 11
5 4 4 3 2 2 2 2 3 3 3 4 4 3 3 3 3 2 2 3 4 5 5 5 5 5 4 4 4 3 3 3 3 3 3 3 4 5 6 8 9 9 9 8 7 9 11 12 13 13 14 15 16 18 20 23 24 25 25 24 24 25 25 24 23 23 23 22 21 20 20 20 20 20 19 19 18 17 16 15 14 13 12 12 11 11 11
5 4 4 3 2 3 3 3 3 3 3 3 3 4 4 4 3 3 3 4 5 5 6 6 6 5 4 4 4 3 4 4 4 4 4 5 7 7 8 9 9 9 10 11 12 13 15 15 15 15 16 17 19 22 24 25 25 24 23 24 25 25 24 24 24 24 24 24 23 21 20 19 18 18 18 18 17 17 17 16 15 14 13 13 13 13 13
5 4 4 2 3 4 3 3 3 3 2 2 3 4 4 5 4 3 4 5 6 6 6 6 6 6 5 4 4 4 4 6 7 7 8 10 12 12 12 12 13 14 16 17 17 17 16 16 16 16 18 21 24 26 26 25 24 24 24 25 26 26 26 27 26 25 24 23 22 20 19 18 18 17 18 18 19 19 19 18 18 17 17 17 16 15 15
5 4 3 2 3 4 3 3 3 3 3 3 4 5 6 6 5 4 4 6 7 7 7 7 8 8 7 7 6 5 6 7 8 7 8 12 15 17 17 18 18 19 19 20 19 17 16 17 17 18 21 24 25 25 24 23 24 26 27 27 27 27 27 26 24 23 22 20 19 19 19 19 19 19 19 19 19 19 19 19 19 19 18 18 17 17 16
5 4 3 3 3 3 3 2 2 3 3 4 5 6 6 6 5 5 5 6 7 7 7 8 9 9 8 8 8 8 8 9 10 10 12 16 20 21 21 20 20 21 22 22 21 19 19 19 19 20 22 23 24 24 23 24 25 27 27 27 26 26 24 23 22 21 20 19 19 20 20 19 18 18 18 18 18 18 18 18 18 18 17 17 17 16 16
4 4 4 3 3 2 2 2 2 3 3 3 5 6 7 6 5 5 6 6 6 6 7 8 8 8 8 9 10 10 10 11 15 18 20 22 23 21 20 20 20 21 23 24 23 23 23 23 23 23 23 24 25 25 26 26 26 26 25 25 24 23 22 21 20 20 19 19 20 20 19 17 17 16 16 16 17 17 17 17 17 16 16 17 17 17 17
5 4 4 3 3 2 2 2 3 3 3 3 4 5 6 6 6 6 5 5 6 7 7 8 8 7 7 8 9 10 12 16 21 24 24 24 23 22 21 21 21 22 24 24 24 24 24 25 25 25 24 24 24 24 24 24 23 22 22 22 22 21 20 19 18 18 18 18 18 17 16 16 16 16 17 17 18 18 18 18 17 17 17 18 19 20 21
5 4 3 3 3 3 3 2 2 3 3 3 3 4 5 7 8 7 5 5 5 6 7 8 8 8 8 9 10 13 17 22 24 24 24 23 23 23 23 23 23 22 23 23 23 22 22 22 22 22 21 20 20 19 18 18 18 18 18 18 18 18 18 17 18 18 17 17 16 16 16 16 16 17 18 19 19 19 19 20 20 20 21 22 22 22 22
Wind_Direction
184 161 165 171 174 177 177 177 179 184 191 193 196 206 211 209 203 101 71 53 94 87 63 30 29 32 40 52 49 59 99 125 138 146 152 155 158 164 168 170 172 172 167 164 165 166 164 166 166 162 156 157 159 162 168 172 166 159 161 164 164 166 169 170 172 174 176 173 164 156 160 170 174 169 165 166 169 171 173 170 162 159 161 158 154 155 155
187 177 175 173 173 171 171 175 177 180 187 194 202 213 226 251 277 356 20 355 70 86 55 13 13 15 28 59 60 84 114 132 146 152 157 158 159 164 166 168 169 168 165 164 164 164 164 165 165 159 154 158 161 164 170 170 161 158 162 163 163 165 167 167 167 168 168 165 159 155 159 168 168 161 163 169 172 171 170 165 157 154 156 159 160 158 156
183 183 177 172 172 169 170 177 181 179 181 191 207 217 223 246 271 299 324 315 82 90 56 8 6 12 44 99 102 111 124 142 155 158 160 157 156 160 162 163 165 164 164 165 164 165 166 165 164 159 154 159 164 166 171 170 162 159 162 163 165 166 166 165 164 164 164 162 158 155 157 165 166 161 165 170 169 165 161 156 153 153 157 162 163 161 160
165 172 174 168 166 165 167 173 180 183 183 190 203 211 209 241 263 271 284 284 89 62 21 359 82 68 82 95 98 110 122 142 156 157 156 153 151 156 160 162 164 166 167 167 168 168 166 165 165 163 159 161 167 172 175 172 164 161 163 164 166 167 167 166 165 165 164 161 158 156 156 162 165 164 164 165 160 156 156 155 154 155 161 165 165 164 164
148 162 169 161 157 163 162 158 180 196 191 194 198 158 76 24 311 283 271 329 7 355 339 356 77 95 100 87 85 100 111 132 150 147 147 154 153 157 163 165 167 170 170 169 169 167 166 167 168 168 166 167 173 179 180 174 166 164 166 166 166 167 168 168 168 167 166 162 160 160 158 160 164 166 165 162 158 155 155 156 157 159 165 167 165 163 163
148 153 159 155 156 163 146 91 353 251 217 217 193 110 75 49 358 321 302 313 329 336 343 355 22 67 82 70 61 54 52 91 134 128 130 146 152 158 165 166 168 171 170 169 170 168 169 172 171 169 170 174 177 179 177 172 168 167 168 167 165 165 168 169 169 168 167 164 162 161 160 161 163 164 162 160 159 157 155 156 161 165 169 169 167 164 162
140 147 155 158 159 144 101 76 67 74 268 191 113 90 72 54 19 330 304 310 330 340 347 340 341 13 38 59 67 55 40 39 78 112 126 139 150 157 161 162 165 168 168 170 174 174 172 171 169 168 170 174 176 173 170 170 171 170 168 167 166 167 169 170 171 169 167 166 165 162 161 162 162 160 159 158 158 156 156 160 164 166 167 167 166 162 161
143 154 160 154 137 116 104 106 102 88 112 140 127 100 71 49 24 341 314 327 340 336 331 336 346 353 9 84 82 65 57 45 46 81 107 123 139 149 156 158 160 166 169 170 171 173 171 169 169 170 170 171 172 169 167 170 172 172 171 168 168 170 170 171 172 170 168 168 166 161 160 162 161 159 160 161 158 156 158 161 164 164 163 163 162 161 161
151 148 137 128 127 126 122 109 86 43 69 130 162 109 79 50 24 2 336 335 346 339 328 347 1 314 207 119 84 56 52 48 41 60 76 84 105 125 140 147 150 157 164 166 164 163 166 170 173 174 173 172 172 171 171 172 175 178 177 173 173 174 173 173 174 172 171 171 167 161 161 163 162 163 164 161 157 155 157 158 161 162 161 160 160 160 160
140 133 124 131 143 135 110 85 56 1 341 315 284 163 91 42 19 13 354 342 349 345 334 355 307 276 189 125 85 42 36 36 36 58 71 65 64 76 93 116 137 150 159 169 170 166 170 173 172 171 168 165 166 173 179 181 182 184 185 183 181 178 176 176 176 175 176 175 168 163 165 166 165 164 163 158 154 156 158 158 159 160 159 158 157 157 157
143 147 137 133 133 113 70 49 29 5 1 226 233 188 96 23 11 11 359 351 350 343 337 307 297 287 145 120 81 25 23 29 32 44 59 62 58 56 57 67 97 124 138 156 165 172 177 164 153 160 164 161 166 181 190 192 190 187 186 187 186 181 178 179 180 181 181 176 170 167 168 168 166 163 160 156 154 156 158 157 157 158 157 154 154 154 155
145 148 126 103 93 81 41 18 16 18 42 204 211 177 100 10 0 3 359 359 2 354 342 311 301 10 86 101 45 9 16 38 47 48 54 61 63 62 58 57 73 95 119 151 164 179 186 164 148 159 169 171 178 185 186 192 196 193 186 185 187 184 181 182 182 182 179 174 170 168 167 165 164 164 162 157 153 156 159 158 157 157 156 155 153 150 148
123 118 106 95 89 70 21 2 8 19 43 205 195 143 68 348 343 354 358 9 25 20 11 9 37 57 55 49 30 18 25 47 54 55 64 68 68 70 70 70 79 86 89 103 123 152 176 173 166 171 176 179 182 182 181 185 193 194 187 185 187 185 183 185 186 183 181 178 171 165 163 163 162 163 163 156 153 157 161 158 158 159 156 154 149 140 138
106 119 106 105 104 59 351 337 349 357 225 161 112 78 27 328 337 357 14 30 40 43 45 45 56 72 65 48 40 37 41 50 50 50 60 67 66 67 66 68 76 80 75 70 70 84 127 155 166 173 175 175 176 180 186 191 193 191 188 188 192 191 190 193 192 186 183 180 172 165 166 167 164 160 156 152 152 158 160 157 157 158 155 149 142 134 132
266 131 113 116 116 33 333 322 339 31 42 85 82 64 67 25 5 15 41 42 31 44 64 66 70 83 78 61 53 49 45 47 49 47 51 57 60 62 61 61 67 76 79 76 70 68 92 135 157 170 175 178 181 183 186 191 192 188 185 185 187 189 191 192 186 175 170 168 164 164 167 169 167 160 152 148 151 157 158 155 153 152 149 144 138 135 135
338 105 96 86 77 12 348 2 69 65 54 68 64 48 64 49 22 23 46 39 23 38 68 80 82 85 85 79 73 63 54 53 53 52 56 62 66 68 69 71 78 87 90 89 87 84 90 112 141 172 185 187 186 181 174 178 181 176 174 176 175 175 178 177 170 163 161 163 168 171 169 166 163 156 147 145 149 153 154 152 150 148 147 145 141 138 138
46 59 67 68 61 43 37 58 78 77 72 71 61 56 57 44 27 26 33 33 28 36 64 82 83 82 86 88 86 83 80 78 79 83 84 83 84 85 82 84 95 102 101 103 104 98 91 92 105 143 179 169 159 146 145 166 173 166 166 172 170 166 166 164 160 158 161 167 174 177 174 169 164 157 151 148 150 153 152 149 148 148 148 147 146 143 140
81 54 44 47 63 72 72 73 76 76 73 67 59 57 51 39 35 32 28 33 36 40 56 74 85 94 96 93 94 100 99 94 97 104 107 109 111 111 107 107 114 118 114 112 108 97 81 71 80 98 130 153 155 148 148 165 169 161 160 164 164 162 162 161 158 157 161 168 173 174 174 171 165 159 156 152 151 153 152 149 149 149 146 145 146 145 144
109 63 36 20 48 77 85 82 77 72 67 61 55 51 43 36 39 36 29 31 39 44 50 55 74 96 103 102 106 111 113 114 116 114 116 121 118 109 105 107 116 121 119 116 112 104 90 73 72 84 102 133 152 156 162 170 168 160 159 161 162 163 162 160 159 159 162 167 168 167 169 168 162 157 157 154 149 149 150 150 149 149 149 152 152 150 149
81 107 121 75 72 80 80 77 74 66 61 57 53 51 43 35 41 45 42 36 35 44 45 36 47 72 83 91 103 108 110 115 119 117 115 118 117 108 96 91 97 106 109 109 109 106 101 96 94 95 103 122 142 154 164 170 165 158 161 164 163 162 161 159 159 162 166 167 163 158 158 158 155 153 154 155 152 148 148 151 152 153 157 162 160 157 156
93 114 158 180 126 98 78 68 66 59 53 51 48 47 45 38 37 44 47 38 30 35 35 21 32 61 63 62 78 92 98 97 96 97 102 108 111 106 92 82 84 92 98 102 103 102 102 103 106 108 115 130 145 157 166 170 167 162 162 162 160 159 158 157 158 161 163 162 155 149 147 147 146 146 149 153 152 151 153 158 158 158 160 162 161 162 161
120 125 162 180 144 97 74 64 60 53 48 49 48 44 41 39 35 32 34 32 26 27 26 16 21 50 59 53 62 75 80 76 75 81 88 93 96 91 84 82 84 85 91 96 97 98 100 101 106 111 116 127 141 154 165 170 167 162 159 156 153 155 156 154 153 154 152 148 146 146 145 143 140 139 142 148 152 156 163 170 172 170 168 166 166 166 163
101 106 123 127 91 82 76 64 58 52 42 44 52 47 40 41 38 30 27 28 21 18 19 17 17 26 38 48 59 70 74 70 69 76 80 82 86 81 74 76 78 79 87 93 96 100 103 103 108 111 112 121 133 145 159 167 165 160 157 153 149 153 155 152 150 148 144 139 139 140 140 140 137 134 135 138 146 157 166 172 177 179 176 172 170 167 163
95 91 83 81 84 88 83 65 59 54 36 34 46 45 37 37 36 32 33 29 19 11 8 12 15 13 11 25 41 53 69 72 69 75 79 79 84 84 77 74 77 82 90 96 100 104 108 110 112 111 112 120 130 140 152 161 162 159 158 153 148 148 149 148 148 146 141 137 135 133 135 137 137 134 131 128 130 145 161 170 177 181 181 179 176 172 172
89 78 70 75 82 87 93 82 65 50 35 33 39 37 35 33 24 24 33 32 19 11 2 2 10 7 3 21 40 43 56 64 64 71 81 82 81 85 85 81 80 87 97 104 107 109 112 115 115 115 117 123 131 140 148 153 156 155 153 151 148 146 146 146 146 146 145 144 144 145 145 143 141 138 133 127 122 125 137 153 165 172 178 181 179 177 181
89 90 92 97 88 76 82 80 57 42 33 32 32 33 40 48 34 18 30 35 23 12 5 1 2 3 11 35 58 68 81 86 75 68 85 94 90 85 82 78 78 92 106 110 108 108 111 115 116 116 120 125 134 142 146 148 150 149 148 149 151 150 150 149 148 148 149 149 150 150 151 151 148 144 141 140 137 130 126 128 132 138 147 160 168 174 178
104 106 118 115 92 66 57 56 49 38 29 26 25 25 30 42 54 36 34 38 35 28 21 9 356 3 27 39 46 65 90 117 143 123 92 92 90 86 86 86 90 100 106 104 103 106 110 114 113 112 117 125 134 141 144 144 144 144 146 149 152 152 152 151 150 149 150 149 148 149 150 150 148 145 145 148 146 140 135 133 131 132 134 140 153 164 167
110 43 353 51 78 75 69 62 53 44 32 25 23 19 16 25 39 38 35 35 32 31 28 18 9 16 33 35 44 91 116 136 141 117 95 90 95 100 104 102 99 102 103 102 105 108 108 109 109 108 116 128 136 144 150 148 142 142 144 146 147 148 149 149 150 151 151 152 153 154 154 151 148 147 146 145 142 139 140 140 137 134 131 132 141 150 152
95 79 65 72 81 87 84 66 50 42 31 23 21 19 15 20 31 35 36 32 25 20 17 14 15 23 32 29 38 77 104 106 102 96 93 95 102 107 111 107 102 103 106 108 109 107 102 106 110 109 116 129 136 148 157 155 148 148 151 150 148 150 151 152 152 153 153 155 156 156 154 150 147 144 142 143 144 145 142 136 131 127 125 129 134 137 141
94 91 87 87 87 81 65 48 36 27 20 17 22 24 19 20 28 32 30 27 23 18 12 9 12 22 31 33 32 36 52 66 72 76 83 92 101 108 115 117 114 113 116 117 116 110 103 107 113 113 117 127 131 143 157 158 148 147 152 152 151 155 160 161 157 153 152 154 156 153 150 147 147 144 141 142 144 139 133 133 134 133 134 140 142 140 141
101 94 91 89 81 60 42 27 20 18 15 15 23 28 24 22 24 22 19 19 19 13 8 7 12 15 15 19 22 23 39 59 65 69 77 87 99 111 123 130 126 122 126 132 130 120 113 113 113 113 123 136 143 153 162 160 146 139 147 150 151 157 163 164 161 157 156 156 155 152 149 151 152 147 139 137 138 135 136 141 145 144 144 148 152 151 148
118 114 113 102 71 42 26 14 11 16 17 17 26 31 24 18 17 15 12 13 12 7 3 4 7 4 2 8 20 29 46 60 67 75 83 86 94 108 122 133 126 117 124 135 136 127 121 118 116 119 134 150 159 163 162 154 142 139 148 153 154 155 158 161 161 160 159 159 157 155 154 155 154 150 145 145 146 145 145 147 148 148 152 156 156 153 152
174 149 135 116 38 4 12 9 6 13 24 27 30 27 15 12 15 15 9 9 11 9 3 360 359 357 359 10 22 31 52 69 75 85 92 95 105 112 114 125 130 125 126 134 138 134 123 116 119 128 137 145 156 164 163 157 150 149 154 157 156 156 158 161 162 160 159 160 160 159 158 158 157 154 151 150 150 149 150 152 151 151 155 155 148 146 156
63 74 69 51 12 346 353 8 18 35 45 47 47 34 18 11 13 14 11 10 9 6 359 356 356 357 3 15 21 21 38 75 90 93 97 106 119 122 121 124 124 121 124 129 132 136 126 117 125 139 142 143 152 165 171 171 169 165 162 160 158 157 160 161 160 158 158 160 162 160 157 156 157 153 147 145 145 145 148 151 151 151 152 145 136 145 164
81 74 65 52 33 23 29 32 36 48 59 61 57 43 23 13 12 12 10 5 1 359 358 355 355 358 7 22 29 28 35 61 78 89 102 112 116 124 133 134 128 125 127 129 134 153 163 146 140 146 146 143 149 162 169 174 174 169 163 159 158 159 161 161 160 159 159 160 161 159 153 152 156 157 154 150 144 139 139 140 139 143 146 137 132 148 168
95 85 87 83 70 67 69 59 50 60 68 62 52 42 30 20 12 6 4 4 2 1 2 358 356 2 13 21 26 29 35 48 63 82 100 109 114 122 127 128 129 131 129 125 132 154 167 163 159 157 150 140 142 157 164 163 163 162 159 155 154 156 158 159 160 160 158 160 161 160 159 159 159 158 158 158 155 155 157 155 149 144 142 137 138 151 163
85 84 93 97 87 79 76 68 59 63 71 71 61 46 32 24 15 5 5 9 8 3 3 3 2 6 11 15 22 32 38 41 54 73 82 94 117 127 124 124 133 137 138 139 137 142 155 165 169 167 157 146 145 156 162 159 158 159 157 154 152 151 152 154 155 153 153 156 159 159 156 153 150 149 151 153 154 154 155 153 146 139 136 140 147 155 160
92 93 93 91 87 87 87 80 67 67 74 83 79 60 34 25 22 11 8 14 13 5 4 8 9 8 7 10 26 43 45 40 49 71 76 79 102 113 110 111 119 124 142 151 144 142 157 167 168 165 162 159 154 155 160 162 161 160 159 157 156 154 153 153 152 149 149 152 153 150 145 140 138 136 133 136 141 142 143 145 147 146 147 151 155 158 160
105 107 101 91 89 93 97 94 75 58 51 54 64 62 37 18 18 11 8 13 14 5 358 2 11 13 14 18 31 43 43 39 43 63 69 68 75 88 92 85 66 63 127 147 145 152 162 164 158 157 167 169 162 155 157 162 164 162 161 160 158 156 155 153 151 149 149 149 146 141 135 132 130 127 127 134 143 146 146 149 151 151 151 153 154 155 156
107 107 104 99 94 88 90 97 93 73 49 46 56 63 46 359 4 9 9 10 12 8 2 359 6 11 16 23 29 33 37 42 48 58 67 68 75 93 95 77 52 64 121 144 150 157 163 163 161 163 168 169 165 160 159 164 170 169 164 160 156 155 154 152 149 148 147 146 144 140 137 136 134 133 132 135 138 139 140 143 144 144 147 149 151 152 155
118 111 98 94 96 91 89 95 103 92 72 61 62 72 85 45 353 358 1 3 10 21 25 26 32 31 26 27 27 29 38 47 50 54 62 62 62 79 88 72 63 94 140 156 157 158 162 166 169 168 166 164 164 163 162 165 169 168 163 159 156 153 150 147 144 143 143 142 141 140 139 137 135 133 130 129 130 134 137 135 133 137 145 150 154 156 158
129 122 108 97 95 96 101 109 106 94 85 78 78 96 114 110 6 351 1 7 14 37 54 52 47 44 42 40 39 40 48 58 62 64 65 57 44 47 69 89 107 128 147 154 151 150 151 155 162 168 169 165 164 164 164 164 164 163 160 156 151 146 143 141 140 139 139 139 139 138 137 136 135 133 129 124 126 132 134 130 125 129 139 146 151 154 156
138 128 123 110 97 93 97 95 92 92 92 87 82 115 134 132 51 3 25 39 34 43 61 61 55 51 50 53 55 53 53 60 69 75 75 66 54 58 88 125 134 139 144 140 128 125 132 140 153 167 171 165 159 159 161 161 160 158 154 148 143 141 141 141 140 138 135 133 133 135 135 135 134 133 129 126 126 130 131 129 127 129 134 140 144 147 151
146 133 123 115 110 114 100 82 84 100 104 80 62 87 132 128 85 37 57 71 60 53 53 54 54 51 46 48 55 55 47 44 48 66 86 88 75 74 101 130 139 145 152 149 133 127 141 150 154 159 160 156 154 156 157 153 149 144 141 139 139 139 138 136 135 134 133 130 130 131 131 129 127 125 124 123 124 124 124 124 125 127 130 132 134 134 138
153 136 123 116 109 114 111 97 95 104 97 75 64 71 102 108 96 79 75 72 64 61 59 55 52 50 50 58 66 64 54 51 48 48 80 102 90 84 110 130 135 140 151 156 148 141 142 143 142 144 148 150 152 151 146 140 135 133 134 136 137 136 134 132 132 133 132 129 127 127 125 122 120 120 120 120 121 121 122 122 120 119 119 120 119 118 123
155 140 134 125 97 92 99 98 91 85 80 76 77 79 86 96 100 93 81 74 70 70 68 63 60 56 57 69 81 81 74 73 64 55 75 108 118 121 127 131 130 130 133 133 129 128 130 131 134 140 145 147 144 140 135 133 133 133 134 135 134 132 129 129 129 128 127 124 123 122 121 119 118 118 120 122 125 126 125 123 120 118 120 124 126 129 135
156 146 139 123 96 92 97 97 92 83 64 63 87 97 103 107 107 100 89 83 78 73 69 66 63 60 61 72 90 102 99 91 82 75 86 104 115 120 123 122 121 122 121 118 116 118 122 127 131 136 137 137 136 133 132 132 132 131 129 128 126 125 124 123 123 121 120 120 121 123 123 122 122 122 123 125 127 127 127 127 127 128 131 133 135 137 139
157 148 136 122 112 109 106 101 92 77 56 63 90 111 117 114 112 112 106 96 88 81 76 71 66 66 69 76 84 94 105 104 95 89 97 109 113 114 115 116 117 117 116 113 111 113 119 124 128 131 133 133 132 129 127 126 125 124 122 121 120 119 119 119 118 117 117 118 121 124 125 125 126 126 127 127 129 130 131 131 131 132 133 134 134 134 133
160 149 142 143 143 136 128 113 89 73 69 79 102 117 120 117 115 115 109 101 96 92 88 84 80 76 74 76 79 81 89 99 104 107 112 115 115 115 115 115 117 117 115 111 108 110 116 121 125 129 131 129 125 121 119 118 117 115 114 113 114 116 118 120 121 123 123 123 124 124 125 125 126 127 128 131 133 135 136 136 134 133 133 131 129 127 127
167 167 167 168 158 142 125 89 66 65 70 85 110 126 134 137 135 127 116 107 105 104 99 94 88 80 75 78 85 86 90 102 112 116 117 117 116 115 116 116 117 118 117 114 112 113 116 118 120 121 121 119 116 114 113 113 113 112 113 115 118 121 124 126 128 128 128 128 129 129 129 129 130 132 133 134 135 134 133 132 129 128 127 125 121 118 118
183 184 179 171 154 129 102 84 81 80 80 92 113 133 148 152 143 132 124 119 118 118 112 101 93 89 88 91 96 102 111 119 122 123 121 118 115 114 115 116 117 119 119 118 116 117 118 118 117 119 119 118 117 116 117 119 121 123 125 128 131 132 132 133 134 134 134 135 135 135 134 135 136 135 134 132 131 129 127 125 124 124 126 126 123 121 120
195 190 175 171 164 145 124 120 120 108 96 96 106 131 155 155 145 139 133 123 119 122 121 113 105 106 109 109 109 115 123 127 127 126 122 117 113 112 114 116 119 122 123 122 122 123 123 122 123 126 129 129 129 129 130 133 135 136 137 139 140 141 142 143 143 143 143 143 143 140 138 138 137 135 132 130 128 127 126 126 125 124 124 123 121 120 120